sat.trackr.live / text

‹ back to catalog

GLOBALSTAR M080

NORAD 38041 · 2011-080B

PAYLOAD ACTIVE UNKNOWN

§ Identity

Operator
Country
GLOB
Launch date
2011-12-28
Launch site
TYMSC
Launch vehicle
Mass (kg)
RCS (m²)
4.55

Purposes: comms

External: N2YO · Heavens-Above · Gunter

§ Orbital elements

Epoch: 2026-05-25T05:08:38.372064Z

Period
114.08 min
Inclination
52.0055°
Eccentricity
0.0000104
Mean motion
12.62268991 rev/d
Perigee alt
1,413.5 km
Apogee alt
1,413.7 km
Semi-major
7,791.7 km
B*
3.1315e-5
RAAN
88.9280°
Arg perigee
120.3657°
Mean anomaly
19.1839°
Rev number
66,598

§ Raw data

GLOBALSTAR M0801 38041U 11080B   26145.21433301 -.00000098  00000+0  31315-4 0  99952 38041  52.0055  88.9280 0000104 120.3657  19.1839 12.62268991665980

JSON: /api/v1/satellites/38041 · /tle

For live sub-satellite position, see the globe view (requires WebGL).

§ Visibility from observer

Set your observer location to see the next 7 days of passes ≥ 10°. The values pass through the URL so the page stays shareable.

No JS? Fill the form by hand. The geolocation button needs JavaScript.